Location: Gwatt
(46.7204°N, 7.6223°E)
Time: 15:46:23
(UTC+00:00)

Okean 2 Rocket - Pass Details

Date: 18 September 2020
Orbit: 616 x 642 km, 82.5° (Epoch: 23 October)

Event Time Altitude Azimuth Distance (km) Brightness Sun altitude
Rises 18:03:16 0° 150° (SSE) 2,934 6.2 -5.7°
Reaches altitude 10° 18:05:56 10° 135° (SE) 2,028 5.2 -6.2°
Maximum altitude 18:09:17 21° 86° (E) 1,439 4.4 -6.8°
Drops below altitude 10° 18:12:38 10° 38° (NE) 2,030 5.4 -7.3°
Sets 18:15:19 0° 23° (NNE) 2,939 6.4 -7.8°
